Troutdale, OR

3:39 PM PST on February 25, 2017 (GMT -0800)
Portland-Troutdale

Weather History for KTTD - October, 2013

Change the Weather History Date:

Monday, October 21, 2013

  Actual Average Record
Temperature  
Mean Temperature 60 °F 52 °F  
Max Temperature 74 °F 62 °F 78 °F (2003)
Min Temperature 45 °F 43 °F 28 °F (1949)
Degree Days  
Heating Degree Days 5 13  
Month to date heating degree days 236 206  
Cooling Degree Days 0 0  
Month to date cooling degree days 0 0  
Growing Degree Days 8 (Base 50)    
Moisture  
Dew Point 45 °F    
Average Humidity 68    
Maximum Humidity 100    
Minimum Humidity 35    
Precipitation  
Precipitation 0.00 in 0.14 in 1.26 in (1951)
Month to date precipitation 1.32 2.21  
Year to date precipitation 22.24 30.78  
Snow  
Snow 0.00 in - - ()
Month to date snowfall 0.0  
Snow Depth 0.00 in    
Sea Level Pressure  
Sea Level Pressure 30.06 in    
Wind  
Wind Speed 10 mph (North)    
Max Wind Speed 24 mph    
Max Gust Speed 30 mph    
Visibility 5 miles    
Events Fog    
T = Trace of Precipitation, MM = Missing Value Source: NWS Daily Summary

Daily Weather History Graph

Daily Weather History Graph

Search for Another Location

Airport or City:

Trip Planner

Search our weather history database for the weather conditions in past years. The results will help you decide how hot, cold, wet, or windy it might be!

Date:

Astronomy

Oct. 21, 2013 Rise Set
Actual Time 7:34 AM PDT 6:13 PM PDT
Civil Twilight 7:04 AM PDT 6:43 PM PDT
Nautical Twilight 6:29 AM PDT 7:17 PM PDT
Astronomical Twilight 5:55 AM PDT 7:52 PM PDT
Moon 8:02 PM PDT (10/21) 10:21 AM PDT (10/21)
Length of Visible Light 11h 39m
Length of Day
10h 38m
Waning Gibbous, 92% of the Moon is Illuminated
Oct 21
Waning Gibbous
Oct 26
Last Quarter
Nov 3
New
Nov 9
First Quarter
Nov 17
Full

Hourly Weather History & Observations

Time (PDT) Temp. Windchill Dew Point Humidity Pressure Visibility Wind Dir Wind Speed Gust Speed Precip Events Conditions
12:53 AM 45.0 °F 42.6 °F 43.0 °F 93% 30.09 in 5.0 mi WSW 4.6 mph - N/A   Partly Cloudy
1:06 AM 46.4 °F 45.2 °F 44.6 °F 93% 30.09 in 5.0 mi West 3.5 mph - N/A   Mostly Cloudy
1:36 AM 46.4 °F - 44.6 °F 93% 30.09 in 2.5 mi Calm Calm - N/A   Overcast
1:53 AM 46.0 °F - 45.0 °F 96% 30.09 in 2.0 mi Calm Calm - N/A   Overcast
2:09 AM 46.4 °F 45.2 °F 44.6 °F 93% 30.09 in 1.0 mi West 3.5 mph - N/A   Overcast
2:29 AM 46.4 °F 45.2 °F 44.6 °F 93% 30.09 in 0.5 mi West 3.5 mph - N/A Fog Fog
2:42 AM 46.4 °F - 44.6 °F 93% 30.09 in 1.2 mi Calm Calm - N/A   Overcast
2:53 AM 46.0 °F - 45.0 °F 96% 30.10 in 1.0 mi Calm Calm - N/A   Mist
3:22 AM 46.4 °F - 44.6 °F 93% 30.09 in 0.8 mi Calm Calm - N/A   Mist
3:53 AM 46.0 °F - 45.0 °F 96% 30.09 in 0.8 mi Calm Calm - N/A   Mist
4:53 AM 46.0 °F - 45.0 °F 96% 30.08 in 0.5 mi Calm Calm - N/A Fog Fog
5:12 AM 46.4 °F - 44.6 °F 93% 30.08 in 1.2 mi Calm Calm - N/A   Overcast
5:18 AM 46.4 °F 45.2 °F 44.6 °F 93% 30.08 in 0.8 mi Variable 3.5 mph - N/A   Mist
5:31 AM 46.4 °F 45.2 °F 44.6 °F 93% 30.08 in 1.0 mi WNW 3.5 mph - N/A   Mist
5:41 AM 46.4 °F 45.2 °F 44.6 °F 93% 30.08 in 1.5 mi WNW 3.5 mph - N/A   Overcast
5:53 AM 46.0 °F 44.8 °F 45.0 °F 96% 30.08 in 1.5 mi NW 3.5 mph - N/A   Overcast
6:10 AM 46.4 °F - 44.6 °F 93% 30.08 in 1.0 mi Calm Calm - N/A   Mist
6:18 AM 46.4 °F - 44.6 °F 93% 30.08 in 1.8 mi Calm Calm - N/A   Overcast
6:36 AM 44.6 °F - 44.6 °F 100% 30.08 in 2.0 mi Calm Calm - N/A   Overcast
6:53 AM 45.0 °F - 44.1 °F 97% 30.07 in 1.8 mi Calm Calm - N/A   Overcast
7:01 AM 44.6 °F - 44.6 °F 100% 30.08 in 0.8 mi Calm Calm - N/A   Overcast
7:17 AM 44.6 °F 43.1 °F 42.8 °F 93% 30.07 in 1.0 mi Variable 3.5 mph - N/A   Mist
7:31 AM 44.6 °F 43.1 °F 42.8 °F 93% 30.08 in 1.2 mi WSW 3.5 mph - N/A   Overcast
7:42 AM 44.6 °F 43.1 °F 42.8 °F 93% 30.08 in 0.8 mi Variable 3.5 mph - N/A   Mist
7:53 AM 45.0 °F 42.6 °F 43.0 °F 93% 30.08 in 1.0 mi West 4.6 mph - N/A   Overcast
8:53 AM 46.0 °F 44.8 °F 44.1 °F 93% 30.09 in 7.0 mi WNW 3.5 mph - N/A   Clear
9:53 AM 50.0 °F - 46.0 °F 86% 30.09 in 10.0 mi Variable 4.6 mph - N/A   Clear
10:53 AM 53.1 °F - 46.9 °F 80% 30.08 in 10.0 mi Variable 5.8 mph - N/A   Clear
11:53 AM 60.1 °F - 48.9 °F 67% 30.06 in 10.0 mi Variable 6.9 mph - N/A   Clear
12:35 PM 62.6 °F - 48.2 °F 59% 30.05 in 10.0 mi NW 6.9 mph - N/A   Clear
12:53 PM 66.0 °F - 48.9 °F 54% 30.04 in 10.0 mi NW 6.9 mph - N/A   Clear
1:53 PM 73.0 °F - 45.0 °F 37% 30.01 in 10.0 mi East 13.8 mph 21.9 mph N/A   Clear
2:53 PM 73.9 °F - 45.0 °F 35% 30.00 in 10.0 mi ENE 9.2 mph 19.6 mph N/A   Clear
3:53 PM 73.9 °F - 45.0 °F 35% 29.99 in 10.0 mi East 12.7 mph 24.2 mph N/A   Clear
4:53 PM 73.0 °F - 45.0 °F 37% 29.98 in 10.0 mi East 18.4 mph - N/A   Clear
5:53 PM 71.1 °F - 45.0 °F 39% 29.98 in 10.0 mi East 15.0 mph - N/A   Clear
6:53 PM 70.0 °F - 44.1 °F 39% 29.99 in 10.0 mi East 18.4 mph - N/A   Clear
7:53 PM 69.1 °F - 44.1 °F 40% 29.98 in 10.0 mi East 16.1 mph - N/A   Clear
8:53 PM 69.1 °F - 43.0 °F 39% 29.99 in 10.0 mi East 18.4 mph 26.5 mph N/A   Clear
9:53 PM 68.0 °F - 43.0 °F 40% 29.99 in 10.0 mi East 20.7 mph 27.6 mph N/A   Clear
10:53 PM 66.9 °F - 43.0 °F 42% 30.00 in 10.0 mi East 20.7 mph 29.9 mph N/A   Clear
11:53 PM 64.9 °F - 44.1 °F 47% 30.00 in 10.0 mi East 18.4 mph 28.8 mph N/A   Clear